Highgate, VT

7:38 PM EST on November 13, 2019 (GMT -0500)
Franklin County State

Weather History for KFSO - September, 2019

Change the Weather History Date:

Sunday, September 29, 2019

  Actual Average (WUND) Record (WUND)
Temperature  
Mean Temperature 52 °F -  
Max Temperature 61 °F - - (-1)
Min Temperature 43 °F - - (-1)
Degree Days  
Heating Degree Days 12    
Growing Degree Days 2 (Base 50)    
Moisture  
Dew Point 43 °F    
Average Humidity 72    
Maximum Humidity 97    
Minimum Humidity 44    
Precipitation  
Precipitation 0.00 in - - ()
Sea Level Pressure  
Sea Level Pressure 30.36 in    
Wind  
Wind Speed 5 mph (North)    
Max Wind Speed 13 mph    
Max Gust Speed 22 mph    
Visibility 10 miles    
Events      
Averages and records for this station are not official NWS values.
T = Trace of Precipitation, MM = Missing Value Source: NWS Daily Summary

Daily Weather History Graph

Daily Weather History Graph

Search for Another Location

Airport or City:

Astronomy

Sep. 29, 2019 Rise Set
Actual Time 6:47 AM EDT 6:37 PM EDT
Civil Twilight 6:18 AM EDT 7:06 PM EDT
Nautical Twilight 5:44 AM EDT 7:40 PM EDT
Astronomical Twilight 5:09 AM EDT 8:14 PM EDT
Moon 7:34 AM EDT (9/29) 7:34 PM EDT (9/29)
Length of Visible Light 12h 47m
Length of Day
11h 49m
New Moon, 1% of the Moon is Illuminated
Sep 29
New Moon
Oct 5
First Quarter
Oct 13
Full
Oct 21
Last Quarter
Oct 27
New

Hourly Weather History & Observations

Time (EDT) Temp. Windchill Dew Point Humidity Pressure Visibility Wind Dir Wind Speed Gust Speed Precip Events Conditions
12:15 AM 62.6 °F - 61.3 °F 96% 30.15 in 10.0 mi WNW 3.5 mph - N/A   Overcast
12:36 AM 62.2 °F - 61.0 °F 96% 30.15 in 10.0 mi NNW 3.5 mph - N/A   Overcast
12:56 AM 61.9 °F - 60.8 °F 96% 30.17 in 10.0 mi NW 3.5 mph - N/A   Overcast
1:15 AM 61.7 °F - 60.3 °F 95% 30.17 in 10.0 mi NW 3.5 mph - N/A   Overcast
1:36 AM 61.0 °F - 59.9 °F 96% 30.18 in 10.0 mi Calm Calm - N/A   Overcast
1:55 AM 60.8 °F - 59.4 °F 95% 30.20 in 10.0 mi North 6.9 mph - N/A   Overcast
2:16 AM 58.5 °F - 55.6 °F 90% 30.20 in 10.0 mi North 11.5 mph 16.1 mph N/A   Overcast
2:36 AM 58.3 °F - 54.7 °F 88% 30.21 in 10.0 mi North 12.7 mph 17.3 mph N/A   Overcast
2:55 AM 57.4 °F - 54.0 °F 88% 30.22 in 10.0 mi North 9.2 mph 17.3 mph N/A   Overcast
3:15 AM 55.9 °F - 51.6 °F 85% 30.22 in 10.0 mi North 10.4 mph 21.9 mph N/A   Overcast
3:35 AM 55.2 °F - 51.1 °F 86% 30.24 in 10.0 mi North 10.4 mph 16.1 mph N/A   Overcast
3:55 AM 53.6 °F - 46.9 °F 78% 30.25 in 10.0 mi NNE 11.5 mph 17.3 mph N/A   Overcast
4:15 AM 53.1 °F - 45.5 °F 75% 30.27 in 10.0 mi NNE 6.9 mph - N/A   Overcast
4:36 AM 52.5 °F - 45.5 °F 77% 30.28 in 10.0 mi North 9.2 mph - N/A   Overcast
4:55 AM 51.3 °F - 42.3 °F 71% 30.29 in 10.0 mi North 10.4 mph 16.1 mph N/A   Overcast
5:15 AM 50.4 °F - 41.5 °F 72% 30.31 in 10.0 mi North 10.4 mph 18.4 mph N/A   Overcast
5:35 AM 49.6 °F - 41.5 °F 74% 30.32 in 10.0 mi North 9.2 mph 17.3 mph N/A   Overcast
5:55 AM 49.1 °F - 41.0 °F 74% 30.33 in 10.0 mi North 11.5 mph 17.3 mph N/A   Overcast
6:15 AM 48.7 °F - 41.4 °F 76% 30.34 in 10.0 mi North 9.2 mph - N/A   Overcast
6:36 AM 48.2 °F - 41.2 °F 77% 30.35 in 10.0 mi North 8.1 mph - N/A   Mostly Cloudy
6:56 AM 47.3 °F - 41.9 °F 82% 30.37 in 10.0 mi North 4.6 mph - N/A   Mostly Cloudy
7:15 AM 46.4 °F 43.5 °F 41.9 °F 84% 30.38 in 10.0 mi North 5.8 mph - N/A   Mostly Cloudy
7:35 AM 46.4 °F 44.3 °F 41.9 °F 84% 30.38 in 10.0 mi NNE 4.6 mph - N/A   Clear
7:56 AM 46.6 °F - 41.9 °F 84% 30.39 in 10.0 mi NNE 3.5 mph - N/A   Clear
8:15 AM 48.4 °F - 41.9 °F 78% 30.40 in 10.0 mi North 3.5 mph - N/A   Clear
8:35 AM 50.2 °F - 41.7 °F 73% 30.40 in 10.0 mi NNE 3.5 mph - N/A   Clear
8:55 AM 51.4 °F - 41.2 °F 68% 30.41 in 10.0 mi North 5.8 mph - N/A   Clear
9:15 AM 52.7 °F - 40.3 °F 63% 30.43 in 10.0 mi North 8.1 mph - N/A   Clear
9:36 AM 52.7 °F - 39.9 °F 62% 30.43 in 10.0 mi North 5.8 mph - N/A   Clear
9:55 AM 52.9 °F - 39.2 °F 60% 30.42 in 10.0 mi North 8.1 mph - N/A   Clear
10:15 AM 54.0 °F - 39.2 °F 57% 30.42 in 10.0 mi North 11.5 mph - N/A   Clear
10:35 AM 54.3 °F - 38.1 °F 54% 30.42 in 10.0 mi North 8.1 mph - N/A   Clear
10:55 AM 55.0 °F - 36.9 °F 50% 30.42 in 10.0 mi North 11.5 mph 16.1 mph N/A   Clear
11:16 AM 55.2 °F - 36.9 °F 50% 30.43 in 10.0 mi NE 5.8 mph - N/A   Clear
11:36 AM 56.3 °F - 37.6 °F 50% 30.43 in 10.0 mi North 6.9 mph - N/A   Clear
11:55 AM 56.7 °F - 36.1 °F 46% 30.43 in 10.0 mi NNW 4.6 mph - N/A   Clear
12:16 PM 57.4 °F - 36.9 °F 46% 30.43 in 10.0 mi North 5.8 mph - N/A   Clear
12:35 PM 57.2 °F - 37.6 °F 48% 30.43 in 10.0 mi NNW 5.8 mph - N/A   Clear
12:55 PM 57.2 °F - 36.9 °F 47% 30.43 in 10.0 mi NNW 4.6 mph - N/A   Clear
1:15 PM 57.9 °F - 36.5 °F 45% 30.43 in 10.0 mi NNW 3.5 mph - N/A   Clear
1:36 PM 58.5 °F - 37.2 °F 45% 30.42 in 10.0 mi North 5.8 mph - N/A   Clear
1:56 PM 58.5 °F - 36.7 °F 44% 30.41 in 10.0 mi NNE 6.9 mph - N/A   Clear
2:16 PM 58.6 °F - 37.4 °F 45% 30.41 in 10.0 mi North 4.6 mph - N/A   Clear
2:36 PM 58.8 °F - 37.9 °F 46% 30.41 in 10.0 mi North 8.1 mph - N/A   Clear
2:55 PM 58.3 °F - 37.4 °F 46% 30.41 in 10.0 mi North 5.8 mph - N/A   Clear
3:16 PM 59.2 °F - 37.0 °F 44% 30.41 in 10.0 mi North 5.8 mph - N/A   Clear
3:35 PM 58.3 °F - 38.8 °F 48% 30.40 in 10.0 mi NNW 3.5 mph - N/A   Clear
3:55 PM 59.2 °F - 37.9 °F 45% 30.40 in 10.0 mi North 4.6 mph - N/A   Clear
4:16 PM 59.0 °F - 37.9 °F 46% 30.39 in 10.0 mi NNE 4.6 mph - N/A   Clear
4:35 PM 58.8 °F - 39.6 °F 49% 30.38 in 10.0 mi North 4.6 mph - N/A   Clear
4:55 PM 58.1 °F - 39.9 °F 51% 30.38 in 10.0 mi North 3.5 mph - N/A   Clear
5:16 PM 57.9 °F - 41.2 °F 54% 30.38 in 10.0 mi North 3.5 mph - N/A   Clear
5:36 PM 56.5 °F - 41.7 °F 58% 30.38 in 10.0 mi Calm Calm - N/A   Clear
5:56 PM 57.2 °F - 41.2 °F 55% 30.38 in 10.0 mi Calm Calm - N/A   Clear
6:15 PM 55.0 °F - 40.8 °F 59% 30.38 in 10.0 mi Calm Calm - N/A   Clear
6:35 PM 53.2 °F - 42.3 °F 66% 30.38 in 10.0 mi Calm Calm - N/A   Clear
6:55 PM 50.9 °F - 42.3 °F 72% 30.38 in 10.0 mi Calm Calm - N/A   Clear
7:15 PM 49.5 °F - 44.1 °F 82% 30.39 in 10.0 mi Calm Calm - N/A   Clear
7:35 PM 48.2 °F - 44.8 °F 88% 30.40 in 10.0 mi Calm Calm - N/A   Clear
7:55 PM 47.3 °F - 45.0 °F 92% 30.40 in 10.0 mi Calm Calm - N/A   Clear
8:16 PM 46.9 °F - 44.8 °F 92% 30.40 in 10.0 mi Calm Calm - N/A   Clear
8:35 PM 45.9 °F - 44.2 °F 94% 30.41 in 10.0 mi Calm Calm - N/A   Clear
8:56 PM 45.7 °F - 44.6 °F 96% 30.41 in 10.0 mi Calm Calm - N/A   Clear
9:15 PM 44.6 °F - 43.2 °F 95% 30.42 in 10.0 mi Calm Calm - N/A   Clear
9:35 PM 43.9 °F - 42.8 °F 96% 30.41 in 10.0 mi Calm Calm - N/A   Clear
9:55 PM 43.5 °F - 42.3 °F 95% 30.41 in 10.0 mi Calm Calm - N/A   Clear
10:16 PM 43.7 °F - 42.8 °F 97% 30.41 in 10.0 mi Calm Calm - N/A   Clear
10:36 PM 44.6 °F 43.1 °F 43.3 °F 95% 30.41 in 10.0 mi SE 3.5 mph - N/A   Clear
10:56 PM 44.4 °F - 43.2 °F 95% 30.40 in 10.0 mi Calm Calm - N/A   Clear
11:16 PM 44.4 °F - 43.2 °F 95% 30.40 in 10.0 mi Calm Calm - N/A   Clear
11:35 PM 44.4 °F - 43.2 °F 95% 30.40 in 10.0 mi Calm Calm - N/A   Clear
11:56 PM 44.2 °F - 43.0 °F 95% 30.41 in 10.0 mi Calm Calm - N/A   Clear